Location: ??????
(36.0418°N, 43.6351°E)
Time: 22:56:03
(UTC+00:00)

NOSS 3-4 (C) - Pass Details

Date: 07 March 2021
Orbit: 873 x 1340 km, 63.4° (Epoch: 18 April)

Event Time Altitude Azimuth Distance (km) Brightness Sun altitude
Exits shadow 02:06:59 16° 221° (SW) 2,097 4.8 -17.1°
Maximum altitude 02:11:37 71° 303° (WNW) 938 3.2 -16.2°
Drops below altitude 10° 02:17:42 10° 28° (NNE) 2,653 6.2 -15.0°
Sets 02:20:21 0° 30° (NNE) 3,656 7.0 -14.4°
